Location: Drocourt
(49.0571°N, 1.7669°E)
Time: 15:51:45
(UTC+00:00)

Cosmos 2184 Rocket - Pass Details

Date: 09 February 2023
Orbit: 958 x 1003 km, 82.9° (Epoch: 25 March)

Event Time Altitude Azimuth Distance (km) Brightness Sun altitude
Rises 18:56:14 0° 354° (N) 3,703 7.1 -19.0°
Reaches altitude 10° 18:58:57 10° 2° (N) 2,743 6.3 -19.4°
Maximum altitude 19:04:52 42° 72° (ENE) 1,364 4.3 -20.4°
Enters shadow 19:06:20 36° 105° (ESE) 1,484 4.4 -20.6°
